Regional Weather Roundup
Issued by NWS

Home | Current Version | Previous Version | Graphics & Text | Print | Product List | Glossary On
Versions: 1 2 3 4 5 6 7 8 9 10 11 12 13 14 15 16 17 18 19 20 21 22 23 24 25 26 27 28 29 30 31 32 33 34 35 36 37 38 39 40 41 42 43 44 45 46 47 48 49 50
000
ASUS45 KPSR 030910
RWRAZ

ARIZONA HOURLY REGIONAL WEATHER ROUNDUP
NATIONAL WEATHER SERVICE PHOENIX AZ
200 AM MST FRI JUL 03 2015

NOTE: FAIR INDICATES FEW OR NO CLOUDS BELOW 12,000 FEET WITH NO
SIGNIFICANT WEATHER AND/OR OBSTRUCTIONS TO VISIBILITY.

AZZ001>003-036-031000-
NORTHWEST ARIZONA

CITY           SKY/WX    TMP DP  RH WIND       PRES   REMARKS
BULLHEAD CITY  PTCLDY    93  55  27 CALM      29.75S
KINGMAN        PTCLDY    80  51  36 S9        29.97F
$$

AZZ004>008-015-016-018-031000-
NORTH CENTRAL ARIZONA

CITY           SKY/WX    TMP DP  RH WIND       PRES   REMARKS
GRAND CANYON     N/A    N/A N/A N/A MISG      30.22F
WILLIAMS       MOCLDY    59  52  77 S8        30.29S
PRESCOTT       MOCLDY    76  53  44 SE3       30.10S
FLAGSTAFF      MOCLDY    62  50  64 SW5       30.25R
PAYSON         MOCLDY    73  52  46 CALM      30.12S
PAGE           MOCLDY    83  50  31 N8        29.98F
$$

AZZ009>014-017-031000-
NORTHEAST ARIZONA

CITY           SKY/WX    TMP DP  RH WIND       PRES   REMARKS
WINSLOW        CLOUDY    75  54  47 N5        30.07R
SAINT JOHNS    CLOUDY    71  54  54 E10       30.14F
WINDOW ROCK    CLOUDY    66  53  63 CALM      30.23F
SHOW LOW       MOCLDY    68  52  56 S6        30.22S
$$

AZZ023-031000-
GREATER PHOENIX AREA

CITY           SKY/WX    TMP DP  RH WIND       PRES   REMARKS
PHOENIX        TSTM      95  60  31 S6        29.80R
BUCKEYE        MOCLDY    90  54  29 SW3       29.79F
LUKE AFB       CLOUDY    93  57  29 S9        29.78R
DEER VALLEY    CLOUDY    90  61  37 VRB6      29.81R
SCOTTSDALE     TSTM      89  63  41 E9        29.85R
MESA-GATEWAY   CLOUDY    88  61  40 SE9       29.87S THUNDER
$$

AZZ027-028-031000-
SOUTHWEST MARICOPA COUNTY AND PINAL COUNTY

CITY           SKY/WX    TMP DP  RH WIND       PRES   REMARKS
CASA GRANDE    CLOUDY    84  68  58 E6        29.85S
GILA BEND      FAIR      92  59  32 SW8       29.79S
$$

AZZ503-504-507>509-031000-
SOUTHEAST ARIZONA

CITY           SKY/WX    TMP DP  RH WIND       PRES   REMARKS
TUCSON         CLOUDY    86  54  33 W6        29.94F
DAVIS-MONTHAN  CLOUDY    86  55  34 SW7       29.93S
NOGALES        CLOUDY    75  61  61 S22       30.09R
SIERRA VISTA   CLOUDY    79  56  45 W9        30.11S
DOUGLAS        CLOUDY    72  63  73 NE9       30.08F THUNDER
SAFFORD        TSTM      71  66  84 S17       30.08R
$$

AZZ020-021-025-026-031-031000-
SOUTHWEST ARIZONA

CITY           SKY/WX    TMP DP  RH WIND       PRES   REMARKS
YUMA           CLEAR     86  65  49 S8        29.77F
$$

CAZ031-033-041-043-047-048-061-031000-
SOUTHERN CALIFORNIA

CITY           SKY/WX    TMP DP  RH WIND       PRES   REMARKS
DOWNTOWN L.A.  PTCLDY    64  60  87 CALM      29.94S
L.A. AIRPORT   MOCLDY    63  61  93 SW7       29.95S
SAN DIEGO      CLOUDY    69  62  78 NW3       29.97S
BURBANK        CLEAR     69  60  73 E6        29.94S
ONTARIO        CLEAR     70  57  63 W3        29.95S
RIVERSIDE      CLEAR     71  60  68 CALM      29.95F
PALM SPRINGS   CLEAR     90  57  32 CALM      29.78F
EL CENTRO NAS  PTCLDY    88  51  28 W13       29.76S
IMPERIAL       PTCLDY    85  54  34 W6        29.74F
BLYTHE         CLEAR     90  62  39 E6        29.74R
NEEDLES        CLEAR     97  53  22 W9        29.76S
$$

NVZ020-UTZ003-031000-
SOUTHERN NEVADA-UTAH

CITY           SKY/WX    TMP DP  RH WIND       PRES   REMARKS
LAS VEGAS      MOCLDY    93  51  23 S9        29.80F
SALT LAKE CITY CLEAR     78  48  34 SE9       29.99S
$$

NMZ009-TXZ055-031000-
NEW MEXICO-WEST TEXAS

CITY           SKY/WX    TMP DP  RH WIND       PRES   REMARKS
ALBUQUERQUE    CLOUDY    69  59  70 N5        30.16F
EL PASO        CLOUDY    82  54  37 E7        30.03R THUNDER
$$


........................KEY........................
SKY/WX - SKY CONDITION/WEATHER
TMP    - TEMPERATURE IN FAHRENHEIT
DP     - DEW POINT IN FAHRENHEIT
RH     - RELATIVE HUMIDITY IN PERCENT
WIND   - DIRECTION AND SPEED IN MILES PER HOUR (MPH)
VRB    - VARIABLE WIND DIRECTION
PRES   - MEAN SEA LEVEL PRESSURE IN INCHES OF MERCURY
         F - FALLING PRESSURE   R - RISING PRESSURE
         S - STEADY PRESSURE
VSB    - VISIBILITY IN MILES
HX     - HEAT INDEX IN FAHRENHEIT
WCI    - WIND CHILL INDEX IN FAHRENHEIT
TC     - TEMPERATURE IN CELSIUS WHICH IS ALSO KNOWN AS
         TEMPERATURE IN CENTIGRADE
AFB    - AIR FORCE BASE
         LUKE AFB IS LUKE AIR FORCE BASE
         DAVIS-MONTHAN IS DAVIS-MONTHAN AIR FORCE BASE
NAS    - NAVAL AIR STATION
         EL CENTRO NAS IS EL CENTRO NAVAL AIR STATION
N/A    - NOT AVAILABLE




USA.gov is the U.S. government's official web portal to all federal, state and local government web resources and services.